Regional Weather Roundup
Issued by NWS

Home | Current Version | Previous Version | Graphics & Text | Print | Product List | Glossary On
Versions: 1 2 3 4 5 6 7 8 9 10 11 12 13 14 15 16 17 18 19 20 21 22 23 24 25 26 27 28 29 30 31 32 33 34 35 36 37 38 39 40 41 42 43 44 45 46 47 48 49 50
389
ASUS43 KMPX 301101
RWRMN
WEATHER ROUNDUP FOR MINNESOTA
NATIONAL WEATHER SERVICE TWIN CITIES/CHANHASSEN MN
600 AM CDT TUE MAY 30 2017


NOTE: "FAIR" INDICATES FEW OR NO CLOUDS BELOW 12,000 FEET WITH NO
SIGNIFICANT WEATHER AND/OR OBSTRUCTIONS TO VISIBILITY. N/A MEANS
CURRENT SKY AND/OR WEATHER CONDITIONS ARE NOT AVAILABLE.

MNZ060>063-068>070-301200-
   Twin Cities Metro

CITY           SKY/WX    TMP DP  RH WIND       PRES   REMARKS
TWIN CITIES    CLOUDY    53  43  68 W10       29.89R
ST PAUL        MOCLDY    53  46  77 W9        29.89R
CRYSTAL        MOCLDY    52  42  69 W7        29.87R
BLAINE         CLOUDY    54  45  71 W5        29.87R
LAKEVILLE      CLOUDY    52  45  76 W6        29.89S
EDEN PRAIRIE   CLOUDY    54  43  66 W5        29.88R
SOUTH ST PAUL  CLOUDY    53  44  69 W7        29.88R
LAKE ELMO      CLOUDY    52  46  82 W9        29.88R
$$
MNZ001>005-007-008-013>017-022>024-027-028-301200-
   Northwest Minnesota

CITY           SKY/WX    TMP DP  RH WIND       PRES   REMARKS
BEMIDJI        DRIZZLE   41  40  95 NW12      29.86S
HALLOCK        CLOUDY    45  43  93 NW12      29.92R
ROSEAU         CLOUDY    43  37  81 NW10      29.86S
WARROAD        CLOUDY    43  39  87 W13       29.85R
CROOKSTON      DRIZZLE   45  45 100 N10       29.93R
FOSSTON        RAIN      41  39  93 NW12G17   29.90R
DETROIT LAKES  CLOUDY    45  43  93 NW15      29.92S FOG
MOORHEAD       CLOUDY    46  43  87 NW7       29.95R
PARK RAPIDS    CLOUDY    45  40  82 NW15      29.87R
MAHNOMEN       CLOUDY    43  42  97 NW12      29.91R FOG
$$
MNZ006-009>011-018-025>026-301200-
   North Central Minnesota

CITY           SKY/WX    TMP DP  RH WIND       PRES   REMARKS
BAUDETTE       CLOUDY    44  43  96 NW10G20   29.81R
FLAG ISLAND    CLOUDY    45  43  93 NW18G25   29.81R FOG
INTL FALLS     CLOUDY    45  43  93 W7        29.77S
WASKISH        CLOUDY    43  41  93 NW10G17   29.84R
BIG FORK       CLOUDY    43  41  93 W7        29.81S
LONGVILLE      DRIZZLE   43  43 100 W7        29.85R
GRAND RAPIDS   CLOUDY    44  40  85 NW13      29.84R
CRANE LAKE     DRIZZLE   43  43 100 W3        29.78R
ORR            CLOUDY    43  39  87 W6        29.75S FOG
COOK           CLOUDY    43  41  93 W10       29.78S
WALKER         RAIN      42  40  95 NW7       29.85S
$$
MNZ012-019>021-037-301200-
   Northeast Minnesota

CITY           SKY/WX    TMP DP  RH WIND       PRES   REMARKS
DULUTH         CLOUDY    45  42  89 W12       29.78R
ELY            CLOUDY    45  43  93 W8        29.75R
HIBBING        CLOUDY    42  40  92 W10       29.79R
EVELETH        CLOUDY    43  38  83 W10       29.79R
DULUTH HARBOR  CLOUDY    48  45  87 W14       29.80R
TWO HARBORS    CLOUDY    50  43  76 W9        29.75R
SILVER BAY     CLOUDY    46  41  81 W3        29.74R
GRAND MARAIS     N/A     45  41  86 W8        29.70R
G MARAIS ARPRT CLOUDY    45  37  76 NW8       29.69S
$$
MNZ029>031-032-039>041-046>048-054>057-064-301200-
   West Central Minnesota

CITY           SKY/WX    TMP DP  RH WIND       PRES   REMARKS
FERGUS FALLS   CLOUDY    46  43  87 N12       29.93R
WHEATON        CLOUDY    48  45  87 W7        29.97R
MORRIS         CLOUDY    48  46  93 NW9       29.93R
ALEXANDRIA     CLOUDY    47  43  86 NW16      29.92R
ELBOW LAKE     CLOUDY    47  44  89 NW10      29.94R
WADENA         CLOUDY    45  41  87 NW10G17   29.89S
GLENWOOD       CLOUDY    46  45  93 W12       29.92R
APPLETON       CLOUDY    54  43  66 NW10      29.94R
BENSON         CLOUDY    50  45  81 N7        29.95R
ORTONVILLE     CLOUDY    50  43  76 NW12      29.95R
MADISON        PTCLDY    50  45  81 W9        29.96R
WILLMAR        MOCLDY    54  46  76 W12       29.93R
$$
MNZ033>034-036-042>043-049>051-058-059-301200-
   Central Minnesota

CITY           SKY/WX    TMP DP  RH WIND       PRES   REMARKS
ST CLOUD       CLOUDY    50  43  77 NW15G23   29.88R
SAUK CENTRE    CLOUDY    47  42  81 NW13G18   29.91R
PAYNESVILLE    CLOUDY    49  45  84 W10G17    29.91S
AITKIN         CLOUDY    45  39  81 NW5       29.83R
PINE RIVER     CLOUDY    45  41  87 W5        29.89S
BRAINERD       CLOUDY    45  41  86 NW13G20   29.87R FOG
STAPLES        CLOUDY    45  39  81 W12       29.88S
LONG PRAIRIE   CLOUDY    46  41  81 W8        29.90R
LITTLE FALLS   CLOUDY    46  39  76 W9G16     29.88S
LITCHFIELD     CLOUDY    54  46  76 W7        29.91R
BUFFALO        CLOUDY    51  45  77 W9        29.89S
MAPLE LAKE     CLOUDY    52  46  82 W8        29.89S
HUTCHINSON     MOCLDY    53  47  81 W10       29.91S
$$
MNZ037-044-045-052-053-301200-
   East Central Minnesota

CITY           SKY/WX    TMP DP  RH WIND       PRES   REMARKS
PRINCETON      CLOUDY    52  43  71 W9G16     29.87R
MORA           CLOUDY    46  41  81 W13       29.86R
CAMBRIDGE      CLOUDY    52  41  66 W8G17     29.84S
RUSH CITY      CLOUDY    49  42  78 W8        29.85R
MOOSE LAKE     CLOUDY    45  41  87 W6        29.81R
HINCKLEY       CLOUDY    46  45  93 W3        29.84S
CLOQUET        CLOUDY    45  37  76 W13       29.80R
MCGREGOR       CLOUDY    43  41  93 W6        29.84R
$$
MNZ071>073-080-081-089-090-097-098-301200-
   Southwest Minnesota

CITY           SKY/WX    TMP DP  RH WIND       PRES   REMARKS
MONTEVIDEO     PTCLDY    52  43  71 NW8       29.94R
CANBY          PTCLDY    49  42  79 NW3       29.98R
MARSHALL       PTCLDY    48  43  82 W9        29.97R
REDWOOD FALLS  PTCLDY    52  42  69 W12       29.93R
OLIVIA         CLOUDY    52  45  76 W9        29.92S
PIPESTONE      PTCLDY    48  39  71 NW7       29.99R
WINDOM         CLEAR     48  43  81 W8        29.96R
WORTHINGTON    CLOUDY    51  42  71 W10       29.99R
JACKSON        CLOUDY    50  43  76 CALM      29.98R
TRACY          CLEAR     51  44  79 W6        29.96S
SLAYTON        PTCLDY    49  42  76 W8        29.98S
$$
MNZ065>067-074>077-082>085-091>093-301200-
   South Central Minnesota

CITY           SKY/WX    TMP DP  RH WIND       PRES   REMARKS
MANKATO        CLOUDY    50  45  83 W8        29.94R
NEW ULM        CLOUDY    52  43  71 W9        29.93R
ST JAMES       PTCLDY    52  45  76 W10       29.96R
FAIRMONT       CLOUDY    52  45  77 W10       29.97R
GLENCOE        CLOUDY    54  49  82 W5        29.90S
FARIBAULT      CLOUDY    54  46  76 SW9       29.92R
OWATONNA       PTCLDY    50  45  81 SW9       29.93R
WASECA         PTCLDY    46  43  87 SW7       29.94S
ALBERT LEA     CLEAR     52  46  82 W5        29.95R
$$
MNZ078>079-086>088-094>096-301200-
   Southeast Minnesota

CITY           SKY/WX    TMP DP  RH WIND       PRES   REMARKS
ROCHESTER      PTCLDY    50  45  83 W13       29.92R
RED WING       CLOUDY    54  45  71 W8        29.88R
STANTON        CLOUDY    54  46  73 W8        29.89S
DODGE CENTER   MOCLDY    48  45  87 W8        29.92R
WINONA         CLOUDY    54  45  71 W6        29.90R
AUSTIN         CLEAR     50  45  81 W6        29.93S
PRESTON        MOCLDY    50  44  80 W10       29.93R
$$
ABBREVIATIONS USED IN REMARKS
   TC - TEMPERATURES IN CELSIUS
  WCI - WIND CHILL INDEX
   HX - HEAT INDEX
  VSB - VISIBILITY
$$




USA.gov is the U.S. government's official web portal to all federal, state and local government web resources and services.